When you browse on this site, cookies collect data to enhance your experience and personalize the content and advertising you see.
Visit our Privacy Policy to learn more. By continuing to use the site, you agree to this use of cookies and data.
  • In United Kingdom
  • List of Countries
  • For 7 days
  • Water Temperature
  • Satellite Maps
  • Weather Map
  • Weather Widgets
  • user-avatar
    Login

    Hourly Weather Gyor

    Today, 26 April, Friday

    Time Temperature Precipitation Wind Pressure Humidity
    00:00 +18°C° 0 mm 7 mps 750 mmHg 52%
    01:00 +17°C° 0 mm 7 mps 750 mmHg 50%
    02:00 +17°C° 0 mm 7 mps 749 mmHg 51%
    03:00 +17°C° 0 mm 7 mps 749 mmHg 52%
    04:00 +16°C° 0 mm 7 mps 749 mmHg 53%
    05:00 +17°C° 0 mm 7 mps 749 mmHg 55%
    06:00 +17°C° 0 mm 7 mps 749 mmHg 57%
    07:00 +17°C° 0 mm 8 mps 749 mmHg 58%
    08:00 +20°C° 0 mm 8 mps 749 mmHg 55%
    09:00 +22°C° 0 mm 8 mps 749 mmHg 51%
    10:00 +24°C° 0 mm 8 mps 749 mmHg 48%
    11:00 +26°C° 0 mm 8 mps 748 mmHg 47%
    12:00 +26°C° 0 mm 8 mps 748 mmHg 45%
    13:00 +27°C° 0 mm 7 mps 748 mmHg 44%
    14:00 +27°C° 0 mm 7 mps 747 mmHg 45%
    15:00 +27°C° 0 mm 7 mps 747 mmHg 46%
    16:00 +27°C° 0 mm 6 mps 746 mmHg 48%
    17:00 +25°C° 0 mm 5 mps 746 mmHg 52%
    18:00 +23°C° 0 mm 5 mps 746 mmHg 57%
    19:00 +21°C° 0 mm 4 mps 747 mmHg 61%
    20:00 +20°C° 0.6 mm 4 mps 747 mmHg 66%
    21:00 +18°C° 0.6 mm 3 mps 748 mmHg 72%
    22:00 +16°C° 0.6 mm 3 mps 748 mmHg 77%
    23:00 +14°C° 0 mm 4 mps 749 mmHg 76%

    Tomorrow, 27 April, Saturday

    Time Temperature Precipitation Wind Pressure Humidity
    00:00 +12°C° 0 mm 4 mps 749 mmHg 74%
    01:00 +10°C° 0 mm 4 mps 749 mmHg 73%
    02:00 +10°C° 0 mm 4 mps 749 mmHg 72%
    03:00 +10°C° 0 mm 4 mps 750 mmHg 72%
    04:00 +10°C° 0 mm 4 mps 750 mmHg 72%
    05:00 +10°C° 0 mm 5 mps 750 mmHg 70%
    06:00 +11°C° 0 mm 6 mps 750 mmHg 68%
    07:00 +11°C° 0 mm 7 mps 751 mmHg 67%
    08:00 +12°C° 0 mm 7 mps 751 mmHg 64%
    09:00 +14°C° 0 mm 7 mps 751 mmHg 61%
    10:00 +15°C° 0 mm 8 mps 751 mmHg 59%
    11:00 +16°C° 0 mm 8 mps 751 mmHg 58%
    12:00 +16°C° 0 mm 7 mps 751 mmHg 57%
    13:00 +17°C° 0 mm 7 mps 750 mmHg 56%
    14:00 +17°C° 0 mm 7 mps 750 mmHg 56%
    15:00 +16°C° 0 mm 6 mps 750 mmHg 56%
    16:00 +16°C° 0 mm 6 mps 749 mmHg 57%
    17:00 +15°C° 0 mm 5 mps 749 mmHg 60%
    18:00 +14°C° 0 mm 4 mps 749 mmHg 64%
    19:00 +13°C° 0 mm 4 mps 750 mmHg 68%
    20:00 +13°C° 0 mm 4 mps 750 mmHg 66%
    21:00 +13°C° 0 mm 5 mps 750 mmHg 64%
    22:00 +12°C° 0 mm 5 mps 751 mmHg 62%
    23:00 +11°C° 0 mm 6 mps 751 mmHg 63%

    Day after tomorrow, 28 April, Sunday

    Time Temperature Precipitation Wind Pressure Humidity
    00:00 +11°C° 0 mm 6 mps 751 mmHg 63%
    01:00 +11°C° 0 mm 7 mps 751 mmHg 64%
    02:00 +10°C° 0 mm 7 mps 751 mmHg 66%
    03:00 +10°C° 0 mm 7 mps 751 mmHg 68%
    04:00 +10°C° 0 mm 7 mps 751 mmHg 69%
    05:00 +10°C° 0 mm 8 mps 752 mmHg 69%
    06:00 +10°C° 0 mm 9 mps 752 mmHg 69%
    07:00 +10°C° 0 mm 9 mps 752 mmHg 68%
    08:00 +10°C° 0 mm 9 mps 752 mmHg 64%
    09:00 +11°C° 0 mm 9 mps 752 mmHg 60%
    10:00 +12°C° 0 mm 9 mps 752 mmHg 56%
    11:00 +13°C° 0 mm 8 mps 752 mmHg 53%
    12:00 +15°C° 0 mm 8 mps 752 mmHg 49%
    13:00 +16°C° 0 mm 8 mps 752 mmHg 46%
    14:00 +16°C° 0 mm 7 mps 752 mmHg 46%
    15:00 +16°C° 0 mm 7 mps 751 mmHg 45%
    16:00 +16°C° 0 mm 6 mps 751 mmHg 44%
    17:00 +14°C° 0 mm 5 mps 751 mmHg 49%
    18:00 +13°C° 0 mm 4 mps 751 mmHg 53%
    19:00 +12°C° 0 mm 3 mps 752 mmHg 58%
    20:00 +11°C° 0 mm 3 mps 752 mmHg 58%
    21:00 +10°C° 0 mm 4 mps 752 mmHg 59%
    22:00 +10°C° 0 mm 4 mps 752 mmHg 59%
    23:00 +10°C° 0 mm 4 mps 752 mmHg 59%

    29 April, Monday

    Time Temperature Precipitation Wind Pressure Humidity
    00:00 +10°C° 0 mm 4 mps 752 mmHg 59%
    01:00 +8°C° 0 mm 5 mps 752 mmHg 58%
    02:00 +8°C° 0 mm 5 mps 752 mmHg 58%
    03:00 +8°C° 0 mm 5 mps 751 mmHg 59%
    04:00 +8°C° 0 mm 5 mps 751 mmHg 59%
    05:00 +8°C° 0 mm 5 mps 751 mmHg 61%
    06:00 +9°C° 0 mm 6 mps 751 mmHg 63%
    07:00 +9°C° 0 mm 6 mps 751 mmHg 66%
    08:00 +9°C° 0.3 mm 6 mps 751 mmHg 68%
    09:00 +10°C° 0.3 mm 6 mps 751 mmHg 70%
    10:00 +10°C° 0.3 mm 6 mps 751 mmHg 72%
    11:00 +10°C° 0.3 mm 6 mps 750 mmHg 72%
    12:00 +11°C° 0.3 mm 6 mps 750 mmHg 73%
    13:00 +11°C° 0.3 mm 6 mps 750 mmHg 73%
    14:00 +11°C° 0.3 mm 6 mps 750 mmHg 76%
    15:00 +10°C° 0.3 mm 5 mps 749 mmHg 79%
    16:00 +10°C° 0.3 mm 5 mps 749 mmHg 82%
    17:00 +10°C° 0 mm 5 mps 749 mmHg 83%
    18:00 +9°C° 0 mm 5 mps 749 mmHg 83%
    19:00 +9°C° 0 mm 5 mps 749 mmHg 84%
    20:00 +9°C° 0 mm 5 mps 749 mmHg 85%
    21:00 +9°C° 0 mm 5 mps 749 mmHg 85%
    22:00 +8°C° 0 mm 5 mps 749 mmHg 86%
    23:00 +8°C° 0 mm 5 mps 749 mmHg 86%

    30 April, Tuesday

    Time Temperature Precipitation Wind Pressure Humidity
    00:00 +8°C° 0 mm 5 mps 748 mmHg 86%
    01:00 +8°C° 0 mm 6 mps 748 mmHg 87%
    02:00 +8°C° 0 mm 6 mps 748 mmHg 87%
    03:00 +8°C° 0 mm 6 mps 748 mmHg 87%
    04:00 +8°C° 0 mm 6 mps 747 mmHg 87%
    05:00 +8°C° 0 mm 6 mps 747 mmHg 86%
    06:00 +9°C° 0 mm 7 mps 747 mmHg 84%
    07:00 +9°C° 0 mm 7 mps 747 mmHg 83%
    08:00 +9°C° 0.1 mm 7 mps 747 mmHg 84%
    09:00 +9°C° 0.1 mm 7 mps 747 mmHg 85%
    10:00 +9°C° 0.1 mm 7 mps 747 mmHg 86%
    11:00 +10°C° 0.2 mm 7 mps 747 mmHg 85%
    12:00 +10°C° 0.2 mm 7 mps 747 mmHg 83%
    13:00 +11°C° 0.2 mm 7 mps 747 mmHg 82%
    14:00 +11°C° 0.3 mm 7 mps 747 mmHg 83%
    15:00 +10°C° 0.3 mm 6 mps 747 mmHg 83%
    16:00 +10°C° 0.3 mm 6 mps 747 mmHg 84%
    17:00 +10°C° 0.1 mm 6 mps 747 mmHg 86%
    18:00 +9°C° 0.1 mm 5 mps 747 mmHg 88%
    19:00 +10°C° 0.1 mm 4 mps 748 mmHg 90%
    20:00 +10°C° 0.2 mm 3 mps 748 mmHg 91%
    21:00 +9°C° 0.2 mm 3 mps 748 mmHg 92%
    22:00 +9°C° 0.2 mm 2 mps 749 mmHg 94%
    23:00 +9°C° 0.1 mm 2 mps 749 mmHg 93%

    1 May, Wednesday

    Time Temperature Precipitation Wind Pressure Humidity
    00:00 +8°C° 0.1 mm 2 mps 749 mmHg 93%
    01:00 +8°C° 0.1 mm 2 mps 749 mmHg 93%
    02:00 +7°C° 0 mm 2 mps 749 mmHg 93%
    03:00 +7°C° 0 mm 3 mps 749 mmHg 93%
    04:00 +5°C° 0 mm 3 mps 749 mmHg 93%
    05:00 +6°C° 0 mm 4 mps 749 mmHg 88%
    06:00 +7°C° 0 mm 4 mps 749 mmHg 84%
    07:00 +9°C° 0 mm 5 mps 749 mmHg 79%
    08:00 +10°C° 0 mm 5 mps 749 mmHg 71%
    09:00 +13°C° 0 mm 5 mps 748 mmHg 62%
    10:00 +15°C° 0 mm 6 mps 748 mmHg 54%
    11:00 +16°C° 0 mm 5 mps 748 mmHg 52%
    12:00 +17°C° 0 mm 5 mps 748 mmHg 49%
    13:00 +17°C° 0 mm 5 mps 747 mmHg 47%
    14:00 +17°C° 0 mm 5 mps 747 mmHg 47%
    15:00 +17°C° 0 mm 5 mps 747 mmHg 48%
    16:00 +17°C° 0 mm 5 mps 747 mmHg 48%
    17:00 +15°C° 0 mm 4 mps 747 mmHg 54%
    18:00 +14°C° 0 mm 3 mps 747 mmHg 60%
    19:00 +13°C° 0 mm 2 mps 747 mmHg 66%
    20:00 +12°C° 0 mm 2 mps 747 mmHg 67%
    21:00 +10°C° 0 mm 2 mps 747 mmHg 68%
    22:00 +11°C° 0 mm 1 mps 747 mmHg 69%
    23:00 +10°C° 0 mm 1 mps 747 mmHg 71%
    Show more